Location: Be?i?
(36.9044°N, 30.1006°E)
Time: 11:29:34
(UTC+00:00)

Cosmos 968 Rocket - Pass Details

Date: 05 August 2024
Orbit: 738 x 767 km, 74.0° (Epoch: 09 September)

Event Time Altitude Azimuth Distance (km) Brightness Sun altitude
Rises 20:07:27 0° 342° (NNW) 3,220 7.8 -29.6°
Reaches altitude 10° 20:09:50 10° 342° (NNW) 2,287 6.8 -29.9°
Enters shadow 20:13:53 56° 342° (NNW) 896 4.0 -30.3°
